Regional Weather Roundup
Issued by NWS

Home | Current Version | Previous Version | Text Only | Print | Product List | Glossary On
Versions: 1 2 3 4 5 6 7 8 9 10 11 12 13 14 15 16 17 18 19 20 21 22 23 24 25 26 27 28 29 30 31 32 33 34 35 36 37 38 39 40 41 42 43 44 45 46 47 48 49 50
000
ASUS43 KOAX 240110
RWRNE

WEATHER ROUNDUP FOR NEBRASKA
NATIONAL WEATHER SERVICE OMAHA NE
800 PM CDT TUE AUG 23 2016

NOTES: SATELLITE DATA IS BEING USED TO AUGMENT CLOUD COVER ABOVE
       12000 FEET.
       "FAIR" INDICATES FEW OR NO CLOUDS BELOW 12,000 FEET WITH NO
       SIGNIFICANT WEATHER AND/OR OBSTRUCTIONS TO VISIBILITY.

  * THESE STATIONS DO NOT REPORT WEATHER SUCH AS RAIN...SNOW OR FOG.

NEZ001>004-019>022-054>056-240200-
NEBRASKA PANHANDLE

CITY           SKY/WX    TMP DP  RH WIND       PRES   REMARKS
SCOTTSBLUFF    CLOUDY    72  46  39 NE8       30.00R
ALLIANCE       PTCLDY    75  40  28 NE9       30.00R
CHADRON        PTCLDY    79  27  14 E15       29.97S
KIMBALL        PTCLDY    73  40  30 NE7       30.07R
SIDNEY         CLEAR     78  33  19 NE8       30.03R
$$

NEZ057>060-069>072-079>082-240200-
SOUTHWEST NEBRASKA

CITY           SKY/WX    TMP DP  RH WIND       PRES   REMARKS
NORTH PLATTE   CLEAR     77  52  41 NW7       29.91R
IMPERIAL       CLEAR     80  41  24 NE12      29.94R
LEXINGTON      CLEAR     81  71  71 N7        29.85R
MCCOOK         CLEAR     84  51  31 N14       29.86R
OGALLALA       CLEAR     79  38  23 NE7       29.96R
$$

NEZ005>010-023>029-035>040-094-240200-
NORTH CENTRAL NEBRASKA

CITY           SKY/WX    TMP DP  RH WIND       PRES   REMARKS
AINSWORTH      CLEAR     77  49  37 NW10      29.90R
BROKEN BOW     PTCLDY    77  56  48 N13       29.86R
O`NEILL        CLEAR     79  58  47 NW9       29.82R
ORD            PTCLDY    80  71  74 CALM      29.79S
THEDFORD       CLEAR     79  47  32 N10       29.93R
$$

NEZ041-046>049-061>064-073>077-083>087-240200-
SOUTH CENTRAL NEBRASKA

CITY           SKY/WX    TMP DP  RH WIND       PRES   REMARKS
GRAND ISLAND   CLEAR     86  68  54 S8        29.80R
AURORA         PTCLDY    84  73  69 S13       29.80R
HASTINGS       PTCLDY    85  70  60 S9        29.81R
HEBRON         CLOUDY    81  67  62 S12       29.81R
HOLDREGE       CLEAR     80  72  75 N3        29.83R
KEARNEY *      CLEAR     84  70  61 NW7       29.80R
YORK           LGT RAIN  79  75  89 S5        29.81R
$$

NEZ011>018-030>034-042>045-240200-
NORTHEAST NEBRASKA

CITY           SKY/WX    TMP DP  RH WIND       PRES   REMARKS
NORFOLK        PTCLDY    83  73  72 CALM      29.77S
ALBION         CLEAR     82  73  75 SE5       29.79S
BLAIR          TSTM      78  75  90 E26G33    29.77F
FREMONT        CLOUDY    79  75  86 E9        29.77F THUNDER
TEKAMAH        TSTM      75  69  81 S15G35    29.80R
WAYNE          CLOUDY    80  73  79 S7        29.79R
$$

NEZ050>053-065>068-078-088>093-240200-
SOUTHEAST NEBRASKA

CITY           SKY/WX    TMP DP  RH WIND       PRES   REMARKS
LINCOLN        PTCLDY    85  72  65 S17       29.78F HX  91
OMAHA EPPLEY   MOCLDY    81  74  79 SE13      29.81R THUNDER
BEATRICE       CLOUDY    83  72  67 S16G22    29.82R
FALLS CITY     CLOUDY    82  72  71 S14       29.86F
NEBRASKA CITY  PTCLDY    81  70  68 S21G26    29.84R
PLATTSMOUTH    PTCLDY    82  72  73 S10G17    29.84R
$$

NEZ044-045-051>053-067-240200-
OMAHA AREA

CITY           SKY/WX    TMP DP  RH WIND       PRES   REMARKS
OMAHA EPPLEY   MOCLDY    81  74  79 SE13      29.81R THUNDER
BLAIR          TSTM      78  75  90 E26G33    29.77F
FREMONT        CLOUDY    79  75  86 E9        29.77F THUNDER
MILLARD        PTCLDY    82  76  80 SE14      29.78R HX  90
OFFUTT AFB     MOCLDY    83  74  75 SE18      29.80R
PLATTSMOUTH    PTCLDY    82  72  73 S10G17    29.84R
WAHOO          CLOUDY    82  72  72 S8        29.78R
$$




USA.gov is the U.S. government's official web portal to all federal, state and local government web resources and services.